sat.trackr.live / text

‹ back to catalog

KUIPER-00178

NORAD 67767 · 2026-030D

PAYLOAD ACTIVE UNKNOWN

§ Identity

Operator
Country
US
Launch date
2026-02-12
Launch site
FRGUI
Launch vehicle
Mass (kg)
RCS (m²)

External: N2YO · Heavens-Above · Gunter

§ Orbital elements

Epoch: 2026-05-24T23:19:54.446880Z

Period
97.53 min
Inclination
51.8995°
Eccentricity
0.0000400
Mean motion
14.76452110 rev/d
Perigee alt
640.3 km
Apogee alt
640.8 km
Semi-major
7,018.7 km
B*
2.9485e-4
RAAN
235.2088°
Arg perigee
99.7763°
Mean anomaly
260.3243°
Rev number
1,648

§ Raw data

KUIPER-001781 67767U 26030D   26144.97215795  .00001856  00000+0  29485-3 0  99962 67767  51.8995 235.2088 0000400  99.7763 260.3243 14.76452110 16485

JSON: /api/v1/satellites/67767 · /tle

For live sub-satellite position, see the globe view (requires WebGL).

§ Visibility from observer

Set your observer location to see the next 7 days of passes ≥ 10°. The values pass through the URL so the page stays shareable.

No JS? Fill the form by hand. The geolocation button needs JavaScript.